^^
Saratoga-Weather Station Historical Data
Daily Summary for January 22, 2022 Units:  English    Metric   Both
Daily Weekly Monthly Yearly Custom
  High: Low: Average:
Temperature: 42.4 °F 36.5 °F 39.6 °F
Dew Point: 38.1 °F 33.4 °F 36.1 °F
Humidity: 92% 82% 87%
Wind Speed: 8.1mph 0mph 2.4mph
Wind Gust: 9mph - -
Wind- - West
Pressure: 30.6 in 30.5 in -
Precipitation: 0 in    
Historical Graphs
 
 
Tabular Data for January 22, 2022
Time Temperature Dew Point Pressure Wind Wind Speed Wind Gust Humidity Rainfall Rate (Hourly) solar
00:02 37.9 °F 35.8 °F 30.5 in West 2.9 mph 8 mph 92% 0 in 0 W/m2
00:07 37.9 °F 35.6 °F 30.5 in WNW 2.9 mph 7 mph 91% 0 in 0 W/m2
00:12 37.9 °F 35.6 °F 30.6 in WNW 2.9 mph 7 mph 91% 0 in 0 W/m2
00:17 38.1 °F 35.8 °F 30.6 in NW 4.9 mph 7 mph 91% 0 in 0 W/m2
00:22 38.1 °F 35.8 °F 30.6 in West 2.9 mph 7 mph 91% 0 in 0 W/m2
00:27 38.1 °F 35.8 °F 30.5 in NW 2.9 mph 8 mph 91% 0 in 0 W/m2
00:32 38.1 °F 35.8 °F 30.5 in West 4 mph 7 mph 91% 0 in 0 W/m2
00:37 38.1 °F 35.8 °F 30.5 in West 2 mph 7 mph 91% 0 in 0 W/m2
00:42 38.1 °F 35.4 °F 30.5 in NW 2 mph 7 mph 90% 0 in 0 W/m2
00:47 38.3 °F 35.6 °F 30.5 in West 4 mph 7 mph 90% 0 in 0 W/m2
00:52 38.3 °F 35.6 °F 30.5 in WSW 4 mph 7 mph 90% 0 in 0 W/m2
00:57 38.1 °F 35.4 °F 30.5 in WNW 2.9 mph 7 mph 90% 0 in 0 W/m2
01:02 38.1 °F 35.4 °F 30.5 in West 6 mph 7 mph 90% 0 in 0 W/m2
01:07 38.1 °F 35.4 °F 30.5 in WNW 4.9 mph 8 mph 90% 0 in 0 W/m2
01:12 38.1 °F 35.4 °F 30.5 in West 4 mph 8 mph 90% 0 in 0 W/m2
01:17 38.1 °F 35.4 °F 30.5 in WSW 4 mph 7 mph 90% 0 in 0 W/m2
01:22 38.1 °F 35.2 °F 30.5 in WSW 2.9 mph 7 mph 89% 0 in 0 W/m2
01:27 38.3 °F 35.4 °F 30.5 in WSW 2.9 mph 6 mph 89% 0 in 0 W/m2
01:32 38.3 °F 35.1 °F 30.5 in WNW 4 mph 6 mph 88% 0 in 0 W/m2
01:37 38.3 °F 35.1 °F 30.5 in West 6 mph 9 mph 88% 0 in 0 W/m2
01:42 38.3 °F 34.7 °F 30.5 in WNW 6.9 mph 9 mph 87% 0 in 0 W/m2
01:47 38.3 °F 34.7 °F 30.5 in West 2 mph 7 mph 87% 0 in 0 W/m2
01:52 38.1 °F 34.5 °F 30.5 in WNW 2.9 mph 4 mph 87% 0 in 0 W/m2
01:57 38.1 °F 34.5 °F 30.5 in West 8.1 mph 8 mph 87% 0 in 0 W/m2
02:02 38.1 °F 34.3 °F 30.5 in WNW 2.9 mph 6 mph 86% 0 in 0 W/m2
02:07 38.3 °F 34.2 °F 30.5 in NW 2.9 mph 4 mph 85% 0 in 0 W/m2
02:12 38.5 °F 34.2 °F 30.5 in WNW 2.9 mph 7 mph 84% 0 in 0 W/m2
02:17 38.5 °F 33.8 °F 30.5 in WNW 2.9 mph 4 mph 83% 0 in 0 W/m2
02:22 38.5 °F 33.8 °F 30.5 in West 0.9 mph 3 mph 83% 0 in 0 W/m2
02:27 38.5 °F 33.8 °F 30.5 in West 2 mph 6 mph 83% 0 in 0 W/m2
02:32 38.5 °F 33.4 °F 30.5 in West 2.9 mph 8 mph 82% 0 in 0 W/m2
02:37 38.5 °F 33.4 °F 30.5 in WNW 4 mph 8 mph 82% 0 in 0 W/m2
02:42 38.5 °F 33.4 °F 30.5 in WNW 2 mph 3 mph 82% 0 in 0 W/m2
02:47 38.5 °F 33.8 °F 30.5 in NW 2 mph 7 mph 83% 0 in 0 W/m2
02:52 38.3 °F 33.6 °F 30.5 in NW 2 mph 4 mph 83% 0 in 0 W/m2
02:57 38.1 °F 33.4 °F 30.5 in WSW 4 mph 6 mph 83% 0 in 0 W/m2
03:02 38.1 °F 33.4 °F 30.5 in West 2.9 mph 6 mph 83% 0 in 0 W/m2
03:07 38.1 °F 33.4 °F 30.5 in West 0.9 mph 4 mph 83% 0 in 0 W/m2
03:12 38.1 °F 33.4 °F 30.5 in WNW 2.9 mph 4 mph 83% 0 in 0 W/m2
03:17 38.1 °F 33.8 °F 30.5 in WNW 0.9 mph 2 mph 84% 0 in 0 W/m2
03:22 38.1 °F 33.8 °F 30.5 in NW 0.9 mph 3 mph 84% 0 in 0 W/m2
03:27 38.1 °F 33.8 °F 30.5 in NW 2 mph 4 mph 84% 0 in 0 W/m2
03:32 37.9 °F 33.6 °F 30.5 in West 2 mph 4 mph 84% 0 in 0 W/m2
03:37 37.9 °F 33.8 °F 30.5 in West 2.9 mph 6 mph 85% 0 in 0 W/m2
03:42 37.9 °F 33.8 °F 30.5 in WNW 2.9 mph 9 mph 85% 0 in 0 W/m2
03:47 37.9 °F 34.2 °F 30.5 in WSW 4 mph 6 mph 86% 0 in 0 W/m2
03:52 37.9 °F 34.2 °F 30.5 in WNW 6 mph 9 mph 86% 0 in 0 W/m2
03:57 37.8 °F 34 °F 30.5 in WSW 4 mph 6 mph 86% 0 in 0 W/m2
04:02 37.8 °F 34 °F 30.5 in West 4 mph 9 mph 86% 0 in 0 W/m2
04:07 37.8 °F 34 °F 30.5 in WNW 2 mph 6 mph 86% 0 in 0 W/m2
04:12 37.8 °F 34 °F 30.5 in WNW 2 mph 9 mph 86% 0 in 0 W/m2
04:17 37.8 °F 34 °F 30.5 in West 2.9 mph 7 mph 86% 0 in 0 W/m2
04:22 37.8 °F 34.2 °F 30.5 in West 2.9 mph 4 mph 87% 0 in 0 W/m2
04:27 37.6 °F 34 °F 30.5 in West 2.9 mph 8 mph 87% 0 in 0 W/m2
04:32 37.6 °F 34 °F 30.5 in WSW 2 mph 9 mph 87% 0 in 0 W/m2
04:37 37.6 °F 34 °F 30.5 in WNW 2 mph 7 mph 87% 0 in 0 W/m2
04:42 37.6 °F 34 °F 30.5 in West 4 mph 9 mph 87% 0 in 0 W/m2
04:47 37.6 °F 34 °F 30.5 in WNW 4 mph 9 mph 87% 0 in 0 W/m2
04:52 37.6 °F 34 °F 30.5 in West 2.9 mph 6 mph 87% 0 in 0 W/m2
04:57 37.4 °F 33.8 °F 30.5 in West 2 mph 8 mph 87% 0 in 0 W/m2
05:02 37.4 °F 33.8 °F 30.5 in SW 2 mph 4 mph 87% 0 in 0 W/m2
05:07 37.2 °F 34 °F 30.5 in West 2.9 mph 8 mph 88% 0 in 0 W/m2
05:12 37.2 °F 34 °F 30.5 in West 0.9 mph 7 mph 88% 0 in 0 W/m2
05:17 37.2 °F 34 °F 30.5 in WNW 4 mph 6 mph 88% 0 in 0 W/m2
05:22 37.2 °F 34 °F 30.5 in WNW 4.9 mph 7 mph 88% 0 in 0 W/m2
05:27 37.2 °F 34 °F 30.5 in West 2.9 mph 7 mph 88% 0 in 0 W/m2
05:32 37.2 °F 34 °F 30.5 in West 2.9 mph 6 mph 88% 0 in 0 W/m2
05:37 37.2 °F 34 °F 30.5 in West 2 mph 7 mph 88% 0 in 0 W/m2
05:42 37.2 °F 34 °F 30.5 in WNW 2 mph 6 mph 88% 0 in 0 W/m2
05:47 37.2 °F 34 °F 30.5 in WNW 2 mph 4 mph 88% 0 in 0 W/m2
05:52 37 °F 33.8 °F 30.5 in West 4 mph 7 mph 88% 0 in 0 W/m2
05:57 37.2 °F 34 °F 30.5 in WNW 2.9 mph 4 mph 88% 0 in 0 W/m2
06:02 37.2 °F 34 °F 30.5 in West 0.9 mph 3 mph 88% 0 in 0 W/m2
06:07 37.2 °F 34 °F 30.5 in WNW 2 mph 5 mph 88% 0 in 0 W/m2
06:12 37.2 °F 34 °F 30.5 in West 2.9 mph 4 mph 88% 0 in 0 W/m2
06:17 37.2 °F 34 °F 30.5 in West 2 mph 4 mph 88% 0 in 0 W/m2
06:22 37.2 °F 34 °F 30.5 in West 2 mph 3 mph 88% 0 in 0 W/m2
06:27 37.2 °F 34 °F 30.5 in West 0.9 mph 2 mph 88% 0 in 0 W/m2
06:32 37.2 °F 34 °F 30.5 in West 4 mph 4 mph 88% 0 in 0 W/m2
06:37 37.2 °F 34 °F 30.5 in West 0.9 mph 3 mph 88% 0 in 0 W/m2
06:42 37.2 °F 34 °F 30.5 in West 2.9 mph 3 mph 88% 0 in 0 W/m2
06:47 37.2 °F 34 °F 30.5 in WNW 2 mph 2 mph 88% 0 in 0 W/m2
06:52 37.2 °F 34.3 °F 30.5 in WNW 2 mph 3 mph 89% 0 in 0 W/m2
06:57 37.2 °F 34.3 °F 30.5 in West 2.9 mph 6 mph 89% 0 in 0 W/m2
07:02 37.2 °F 34.3 °F 30.5 in WNW 2.9 mph 7 mph 89% 0 in 0 W/m2
07:07 37.2 °F 34.3 °F 30.5 in WSW 4 mph 5 mph 89% 0 in 0 W/m2
07:12 37.2 °F 34.3 °F 30.5 in WNW 2 mph 3 mph 89% 0 in 0 W/m2
07:17 37.2 °F 34.3 °F 30.5 in WNW 0.9 mph 3 mph 89% 0 in 0 W/m2
07:22 37.2 °F 34.3 °F 30.5 in WNW 2 mph 3 mph 89% 0 in 0 W/m2
07:27 37.2 °F 34.3 °F 30.5 in NW 2 mph 4 mph 89% 0 in 0 W/m2
07:32 37 °F 34.2 °F 30.5 in NW 2.9 mph 3 mph 89% 0 in 0 W/m2
07:37 37 °F 34.2 °F 30.5 in West 2.9 mph 5 mph 89% 0 in 0 W/m2
07:43 37 °F 34.2 °F 30.5 in West 2.9 mph 8 mph 89% 0 in 0 W/m2
07:48 37 °F 34.2 °F 30.5 in West 2 mph 4 mph 89% 0 in 0 W/m2
07:53 37 °F 34.2 °F 30.5 in NW 2.9 mph 6 mph 89% 0 in 0 W/m2
07:58 37 °F 34.2 °F 30.5 in WSW 2 mph 8 mph 89% 0 in 0 W/m2
08:03 37 °F 34.2 °F 30.5 in WNW 6.9 mph 7 mph 89% 0 in 0 W/m2
08:08 37 °F 34.2 °F 30.6 in West 2.9 mph 4 mph 89% 0 in 0 W/m2
08:13 37 °F 34.2 °F 30.6 in West 7 mph 7 mph 89% 0 in 0 W/m2
08:18 37 °F 34.2 °F 30.6 in West 2.9 mph 4 mph 89% 0 in 0 W/m2
08:23 37 °F 34.2 °F 30.6 in West 6 mph 6 mph 89% 0 in 0 W/m2
08:28 37 °F 34.2 °F 30.6 in West 2.9 mph 4 mph 89% 0 in 0 W/m2
08:33 37 °F 34.2 °F 30.6 in WNW 4 mph 6 mph 89% 0 in 0 W/m2
08:38 37 °F 34.2 °F 30.6 in WNW 2.9 mph 3 mph 89% 0 in 5 W/m2
08:43 37 °F 34.2 °F 30.6 in West 2.9 mph 3 mph 89% 0 in 7 W/m2
08:48 37 °F 34.2 °F 30.6 in Calm   2 mph 89% 0 in 9 W/m2
08:53 37 °F 34.2 °F 30.6 in WNW 0.9 mph 2 mph 89% 0 in 9 W/m2
08:58 37 °F 34.2 °F 30.6 in WNW 2 mph 3 mph 89% 0 in 11 W/m2
09:03 37 °F 34.2 °F 30.6 in WNW 0.9 mph 2 mph 89% 0 in 14 W/m2
09:08 36.9 °F 34 °F 30.6 in Calm   2 mph 89% 0 in 21 W/m2
09:13 36.9 °F 34 °F 30.6 in West 2 mph 2 mph 89% 0 in 25 W/m2
09:18 36.9 °F 34.2 °F 30.6 in West 0.9 mph 2 mph 90% 0 in 28 W/m2
09:23 36.9 °F 34 °F 30.6 in West 2 mph 2 mph 89% 0 in 40 W/m2
09:28 36.9 °F 34 °F 30.6 in West 0.9 mph 2 mph 89% 0 in 33 W/m2
09:33 36.9 °F 34 °F 30.6 in West 0.9 mph 2 mph 89% 0 in 37 W/m2
09:38 36.7 °F 33.8 °F 30.6 in West 0.9 mph 2 mph 89% 0 in 40 W/m2
09:43 36.7 °F 34 °F 30.6 in West 0.9 mph 2 mph 90% 0 in 47 W/m2
09:48 36.5 °F 33.8 °F 30.6 in West 0.9 mph 3 mph 90% 0 in 54 W/m2
09:53 36.7 °F 34 °F 30.6 in West 0.9 mph 1 mph 90% 0 in 35 W/m2
09:58 36.7 °F 34 °F 30.6 in West 0.9 mph 3 mph 90% 0 in 37 W/m2
10:03 36.7 °F 34 °F 30.6 in West 2 mph 2 mph 90% 0 in 56 W/m2
10:08 36.7 °F 34 °F 30.6 in West 0.9 mph 1 mph 90% 0 in 60 W/m2
10:13 36.9 °F 34.2 °F 30.6 in West 2 mph 2 mph 90% 0 in 51 W/m2
10:18 36.9 °F 34.2 °F 30.6 in WNW 0.9 mph 3 mph 90% 0 in 49 W/m2
10:23 37 °F 34.3 °F 30.6 in West 4 mph 4 mph 90% 0 in 54 W/m2
10:28 37.2 °F 34.5 °F 30.6 in West 2.9 mph 4 mph 90% 0 in 60 W/m2
10:33 37.6 °F 34.9 °F 30.6 in West 2.9 mph 4 mph 90% 0 in 62 W/m2
10:38 37.8 °F 35.1 °F 30.6 in WNW 0.9 mph 4 mph 90% 0 in 90 W/m2
10:43 37.9 °F 35.1 °F 30.6 in West 0.9 mph 3 mph 89% 0 in 91 W/m2
10:48 38.3 °F 35.4 °F 30.6 in West 4 mph 7 mph 89% 0 in 97 W/m2
10:53 38.7 °F 35.8 °F 30.6 in West 4 mph 5 mph 89% 0 in 116 W/m2
10:58 39 °F 36.1 °F 30.6 in West 2 mph 4 mph 89% 0 in 148 W/m2
11:03 39.6 °F 36.3 °F 30.6 in WNW 2 mph 7 mph 88% 0 in 158 W/m2
11:08 39.9 °F 36.7 °F 30.6 in WNW 2.9 mph 6 mph 88% 0 in 162 W/m2
11:13 40.5 °F 36.9 °F 30.6 in West 2 mph 5 mph 87% 0 in 128 W/m2
11:18 40.6 °F 36.9 °F 30.6 in WNW 0.9 mph 4 mph 86% 0 in 114 W/m2
11:23 40.8 °F 36.7 °F 30.6 in West 2.9 mph 4 mph 85% 0 in 98 W/m2
11:28 41.2 °F 37.4 °F 30.6 in West 0.9 mph 4 mph 86% 0 in 84 W/m2
11:33 41.4 °F 37.2 °F 30.6 in West 2 mph 6 mph 85% 0 in 74 W/m2
11:38 41.4 °F 37.2 °F 30.6 in WNW 2 mph 3 mph 85% 0 in 69 W/m2
11:43 41.5 °F 37.4 °F 30.6 in West 4 mph 5 mph 85% 0 in 70 W/m2
11:48 41.5 °F 37.4 °F 30.6 in WNW 2.9 mph 6 mph 85% 0 in 63 W/m2
11:53 41.5 °F 37.4 °F 30.6 in West 2 mph 6 mph 85% 0 in 70 W/m2
11:58 41.5 °F 37.4 °F 30.6 in West 2 mph 6 mph 85% 0 in 56 W/m2
12:03 41.5 °F 37.4 °F 30.6 in West 2.9 mph 7 mph 85% 0 in 53 W/m2
12:08 41.5 °F 37.4 °F 30.6 in West 2.9 mph 7 mph 85% 0 in 72 W/m2
12:13 41.5 °F 37.4 °F 30.6 in West 2 mph 4 mph 85% 0 in 90 W/m2
12:18 41.7 °F 37.6 °F 30.6 in WSW 4 mph 7 mph 85% 0 in 86 W/m2
12:23 41.7 °F 37.2 °F 30.6 in WNW 4.9 mph 5 mph 84% 0 in 76 W/m2
12:28 41.9 °F 37.4 °F 30.6 in West 2.9 mph 3 mph 84% 0 in 67 W/m2
12:33 42.1 °F 37.6 °F 30.6 in NW 2 mph 2 mph 84% 0 in 74 W/m2
12:38 42.1 °F 37.6 °F 30.6 in WNW 0.9 mph 3 mph 84% 0 in 86 W/m2
12:43 42.3 °F 37.8 °F 30.6 in WNW 2 mph 4 mph 84% 0 in 84 W/m2
12:48 42.3 °F 37.4 °F 30.6 in NW 2 mph 4 mph 83% 0 in 86 W/m2
12:53 42.3 °F 37.8 °F 30.6 in WNW 2.9 mph 6 mph 84% 0 in 84 W/m2
12:58 42.4 °F 37.6 °F 30.6 in NW 4 mph 4 mph 83% 0 in 83 W/m2
13:03 42.4 °F 37.6 °F 30.6 in WNW 0.9 mph 4 mph 83% 0 in 86 W/m2
13:08 42.4 °F 37.6 °F 30.6 in WNW 0.9 mph 3 mph 83% 0 in 83 W/m2
13:13 42.4 °F 37.6 °F 30.6 in NW 2 mph 3 mph 83% 0 in 72 W/m2
13:18 42.4 °F 37.6 °F 30.6 in WNW 2 mph 4 mph 83% 0 in 67 W/m2
13:23 42.4 °F 37.6 °F 30.6 in West 2.9 mph 5 mph 83% 0 in 65 W/m2
13:28 42.4 °F 37.9 °F 30.6 in WNW 4 mph 5 mph 84% 0 in 54 W/m2
13:33 42.4 °F 37.9 °F 30.6 in WNW 2.9 mph 4 mph 84% 0 in 62 W/m2
13:38 42.4 °F 37.9 °F 30.6 in WNW 2 mph 6 mph 84% 0 in 67 W/m2
13:43 42.4 °F 37.9 °F 30.6 in West 2.9 mph 7 mph 84% 0 in 65 W/m2
13:48 42.3 °F 37.8 °F 30.6 in West 2.9 mph 4 mph 84% 0 in 58 W/m2
13:53 42.3 °F 37.8 °F 30.6 in NW 2.9 mph 4 mph 84% 0 in 58 W/m2
13:58 42.3 °F 38.1 °F 30.6 in West 2 mph 5 mph 85% 0 in 58 W/m2
14:03 42.3 °F 38.1 °F 30.6 in West 4 mph 7 mph 85% 0 in 54 W/m2
14:08 42.3 °F 38.1 °F 30.6 in West 2.9 mph 6 mph 85% 0 in 47 W/m2
14:13 42.1 °F 37.9 °F 30.5 in WNW 4 mph 7 mph 85% 0 in 44 W/m2
14:18 42.1 °F 37.9 °F 30.6 in West 2.9 mph 4 mph 85% 0 in 42 W/m2
14:23 41.9 °F 37.8 °F 30.6 in WNW 2.9 mph 7 mph 85% 0 in 40 W/m2
14:28 41.7 °F 37.6 °F 30.6 in WSW 4 mph 4 mph 85% 0 in 44 W/m2
14:33 41.7 °F 37.6 °F 30.5 in West 2.9 mph 6 mph 85% 0 in 42 W/m2
14:38 41.7 °F 37.6 °F 30.6 in West 2.9 mph 9 mph 85% 0 in 40 W/m2
14:43 41.7 °F 37.6 °F 30.6 in WNW 0.9 mph 4 mph 85% 0 in 39 W/m2
14:48 41.7 °F 37.6 °F 30.5 in WNW 0.9 mph 3 mph 85% 0 in 37 W/m2
14:53 41.7 °F 37.6 °F 30.5 in Calm   2 mph 85% 0 in 33 W/m2
14:58 41.7 °F 37.6 °F 30.5 in NW 2.9 mph 4 mph 85% 0 in 30 W/m2
15:03 41.7 °F 37.6 °F 30.5 in West 4 mph 8 mph 85% 0 in 30 W/m2
15:08 41.5 °F 37.4 °F 30.5 in WNW 2.9 mph 7 mph 85% 0 in 30 W/m2
15:13 41.5 °F 37.4 °F 30.5 in NW 2 mph 8 mph 85% 0 in 25 W/m2
15:18 41.5 °F 37.4 °F 30.5 in West 2 mph 5 mph 85% 0 in 21 W/m2
15:23 41.5 °F 37.4 °F 30.5 in WNW 4 mph 5 mph 85% 0 in 19 W/m2
15:28 41.4 °F 37.2 °F 30.6 in NW 4 mph 7 mph 85% 0 in 21 W/m2
15:33 41.4 °F 37.2 °F 30.6 in West 4 mph 7 mph 85% 0 in 19 W/m2
15:38 41.4 °F 37.6 °F 30.6 in WSW 4 mph 6 mph 86% 0 in 19 W/m2
15:43 41.4 °F 37.6 °F 30.6 in West 6 mph 6 mph 86% 0 in 21 W/m2
15:48 41.4 °F 37.6 °F 30.5 in NW 2.9 mph 4 mph 86% 0 in 21 W/m2
15:53 41.4 °F 37.6 °F 30.5 in WNW 2.9 mph 4 mph 86% 0 in 19 W/m2
15:58 41.4 °F 37.6 °F 30.5 in West 2 mph 3 mph 86% 0 in 18 W/m2
16:03 41.4 °F 37.6 °F 30.6 in WNW 2 mph 2 mph 86% 0 in 16 W/m2
16:08 41.4 °F 37.6 °F 30.5 in WSW 4 mph 4 mph 86% 0 in 14 W/m2
16:13 41.4 °F 37.6 °F 30.5 in WNW 2.9 mph 6 mph 86% 0 in 14 W/m2
16:18 41.5 °F 37.6 °F 30.5 in WNW 2 mph 3 mph 86% 0 in 12 W/m2
16:23 41.5 °F 37.6 °F 30.5 in Calm   2 mph 86% 0 in 12 W/m2
16:28 41.5 °F 37.6 °F 30.5 in WSW 0.9 mph 2 mph 86% 0 in 11 W/m2
16:33 41.5 °F 37.6 °F 30.5 in WSW 0.9 mph 3 mph 86% 0 in 9 W/m2
16:38 41.5 °F 37.6 °F 30.5 in West 2.9 mph 3 mph 86% 0 in 9 W/m2
16:43 41.5 °F 37.6 °F 30.5 in West 0.9 mph 3 mph 86% 0 in 7 W/m2
16:48 41.5 °F 37.6 °F 30.5 in West 0.9 mph 4 mph 86% 0 in 7 W/m2
16:53 41.5 °F 37.6 °F 30.6 in West 2 mph 4 mph 86% 0 in 5 W/m2
16:58 41.5 °F 37.6 °F 30.6 in West 0.9 mph 2 mph 86% 0 in 0 W/m2
17:04 41.5 °F 37.6 °F 30.6 in West 2.9 mph 4 mph 86% 0 in 0 W/m2
17:09 41.5 °F 37.9 °F 30.6 in WNW 2.9 mph 4 mph 87% 0 in 0 W/m2
17:14 41.5 °F 37.9 °F 30.6 in West 0.9 mph 4 mph 87% 0 in 0 W/m2
17:19 41.5 °F 37.9 °F 30.6 in West 2.9 mph 4 mph 87% 0 in 0 W/m2
17:24 41.5 °F 37.9 °F 30.6 in West 2.9 mph 4 mph 87% 0 in 0 W/m2
17:29 41.5 °F 37.9 °F 30.6 in West 2.9 mph 5 mph 87% 0 in 0 W/m2
17:34 41.5 °F 37.9 °F 30.6 in WNW 2.9 mph 4 mph 87% 0 in 0 W/m2
17:39 41.5 °F 37.9 °F 30.6 in WNW 2 mph 3 mph 87% 0 in 0 W/m2
17:44 41.5 °F 37.9 °F 30.6 in West 0.9 mph 6 mph 87% 0 in 0 W/m2
17:49 41.5 °F 37.9 °F 30.6 in WNW 2 mph 2 mph 87% 0 in 0 W/m2
17:54 41.5 °F 37.9 °F 30.6 in WNW 0.9 mph 5 mph 87% 0 in 0 W/m2
17:59 41.5 °F 37.9 °F 30.6 in West 2 mph 3 mph 87% 0 in 0 W/m2
18:04 41.5 °F 37.9 °F 30.6 in WNW 2.9 mph 4 mph 87% 0 in 0 W/m2
18:09 41.5 °F 37.9 °F 30.6 in WNW 0.9 mph 3 mph 87% 0 in 0 W/m2
18:14 41.5 °F 37.9 °F 30.6 in WNW 2.9 mph 4 mph 87% 0 in 0 W/m2
18:19 41.5 °F 37.9 °F 30.6 in WNW 0.9 mph 6 mph 87% 0 in 0 W/m2
18:24 41.5 °F 37.9 °F 30.6 in West 4 mph 4 mph 87% 0 in 0 W/m2
18:29 41.5 °F 37.9 °F 30.6 in WNW 0.9 mph 2 mph 87% 0 in 0 W/m2
18:34 41.5 °F 37.9 °F 30.6 in West 2 mph 3 mph 87% 0 in 0 W/m2
18:39 41.5 °F 37.9 °F 30.6 in West 2 mph 3 mph 87% 0 in 0 W/m2
18:44 41.5 °F 37.9 °F 30.6 in West 0.9 mph 2 mph 87% 0 in 0 W/m2
18:49 41.4 °F 38.1 °F 30.6 in WNW 0.9 mph 3 mph 88% 0 in 0 W/m2
18:54 41.4 °F 38.1 °F 30.6 in WNW 2 mph 2 mph 88% 0 in 0 W/m2
18:59 41.4 °F 38.1 °F 30.6 in West 2 mph 3 mph 88% 0 in 0 W/m2
19:04 41.4 °F 38.1 °F 30.6 in NW 2.9 mph 3 mph 88% 0 in 0 W/m2
19:09 41.4 °F 38.1 °F 30.6 in West 0.9 mph 3 mph 88% 0 in 0 W/m2
19:14 41.4 °F 38.1 °F 30.6 in West 2 mph 3 mph 88% 0 in 0 W/m2
19:27 41.4 °F 38.1 °F 30.6 in West 2 mph 4 mph 88% 0 in 0 W/m2
19:32 41.4 °F 38.1 °F 30.6 in WNW 0.9 mph 3 mph 88% 0 in 0 W/m2
19:37 41.4 °F 38.1 °F 30.6 in NW 2 mph 3 mph 88% 0 in 0 W/m2
19:42 41.4 °F 38.1 °F 30.6 in West 2 mph 4 mph 88% 0 in 0 W/m2
19:47 41.2 °F 37.9 °F 30.6 in West 2 mph 2 mph 88% 0 in 0 W/m2
19:52 41.2 °F 37.9 °F 30.6 in West 2 mph 3 mph 88% 0 in 0 W/m2
19:57 41.2 °F 38.1 °F 30.6 in West 2.9 mph 3 mph 89% 0 in 0 W/m2
20:02 41.2 °F 37.9 °F 30.6 in West 0.9 mph 3 mph 88% 0 in 0 W/m2
20:14 41.2 °F 38.1 °F 30.6 in West 2.9 mph 4 mph 89% 0 in 0 W/m2
20:28 41.2 °F 38.1 °F 30.6 in West 2.9 mph 3 mph 89% 0 in 0 W/m2
20:33 41 °F 37.9 °F 30.6 in West 4 mph 4 mph 89% 0 in 0 W/m2
20:38 41 °F 37.9 °F 30.6 in West 4 mph 6 mph 89% 0 in 0 W/m2
20:43 41 °F 37.9 °F 30.6 in West 2.9 mph 4 mph 89% 0 in 0 W/m2
20:48 41 °F 37.9 °F 30.6 in West 2 mph 5 mph 89% 0 in 0 W/m2
20:53 41 °F 37.9 °F 30.6 in West 2 mph 4 mph 89% 0 in 0 W/m2
20:58 40.8 °F 37.8 °F 30.6 in West 2.9 mph 4 mph 89% 0 in 0 W/m2
21:03 40.8 °F 37.8 °F 30.6 in WNW 0.9 mph 3 mph 89% 0 in 0 W/m2
21:08 40.8 °F 37.8 °F 30.6 in West 2 mph 4 mph 89% 0 in 0 W/m2
21:13 40.8 °F 38.1 °F 30.6 in West 2 mph 4 mph 90% 0 in 0 W/m2
21:18 40.6 °F 37.6 °F 30.6 in West 2.9 mph 4 mph 89% 0 in 0 W/m2
21:23 40.6 °F 37.9 °F 30.6 in WSW 0.9 mph 7 mph 90% 0 in 0 W/m2
21:28 40.6 °F 37.9 °F 30.6 in West 0.9 mph 4 mph 90% 0 in 0 W/m2
21:33 40.6 °F 37.9 °F 30.6 in West 2 mph 4 mph 90% 0 in 0 W/m2
21:38 40.6 °F 37.9 °F 30.6 in West 2.9 mph 5 mph 90% 0 in 0 W/m2
21:43 40.6 °F 37.9 °F 30.6 in West 0.9 mph 4 mph 90% 0 in 0 W/m2
21:48 40.6 °F 37.9 °F 30.6 in West 2.9 mph 4 mph 90% 0 in 0 W/m2
21:53 40.6 °F 37.9 °F 30.6 in West 2 mph 3 mph 90% 0 in 0 W/m2
21:58 40.6 °F 37.9 °F 30.6 in West 0.9 mph 3 mph 90% 0 in 0 W/m2
22:03 40.6 °F 37.9 °F 30.6 in West 2 mph 3 mph 90% 0 in 0 W/m2
22:08 40.5 °F 37.8 °F 30.6 in West 0.9 mph 4 mph 90% 0 in 0 W/m2
22:13 40.5 °F 37.8 °F 30.6 in Calm   2 mph 90% 0 in 0 W/m2
22:18 40.5 °F 37.8 °F 30.6 in West 0.9 mph 4 mph 90% 0 in 0 W/m2
22:23 40.5 °F 37.8 °F 30.6 in Calm     90% 0 in 0 W/m2
22:28 40.5 °F 37.8 °F 30.6 in Calm     90% 0 in 0 W/m2
22:33 40.5 °F 37.8 °F 30.6 in Calm   2 mph 90% 0 in 0 W/m2
22:38 40.5 °F 37.8 °F 30.6 in West 0.9 mph 2 mph 90% 0 in 0 W/m2
22:43 40.3 °F 37.6 °F 30.6 in West 2 mph 2 mph 90% 0 in 0 W/m2
22:48 40.3 °F 37.6 °F 30.6 in West 0.9 mph 3 mph 90% 0 in 0 W/m2
22:53 40.3 °F 37.6 °F 30.6 in Calm   1 mph 90% 0 in 0 W/m2
22:58 40.3 °F 37.6 °F 30.6 in West 0.9 mph 2 mph 90% 0 in 0 W/m2
23:03 40.3 °F 37.6 °F 30.6 in Calm   1 mph 90% 0 in 0 W/m2
23:08 40.3 °F 37.6 °F 30.6 in Calm     90% 0 in 0 W/m2
23:13 40.3 °F 37.6 °F 30.6 in Calm     90% 0 in 0 W/m2
23:18 40.3 °F 37.9 °F 30.6 in West 2 mph 2 mph 91% 0 in 0 W/m2
23:23 40.3 °F 37.9 °F 30.6 in West 2 mph 2 mph 91% 0 in 0 W/m2
23:28 40.1 °F 37.8 °F 30.6 in West 2 mph 2 mph 91% 0 in 0 W/m2
23:33 40.1 °F 37.8 °F 30.6 in West 0.9 mph 2 mph 91% 0 in 0 W/m2
23:38 39.9 °F 37.6 °F 30.6 in Calm   2 mph 91% 0 in 0 W/m2
23:43 39.9 °F 37.6 °F 30.6 in West 0.9 mph 1 mph 91% 0 in 0 W/m2
23:48 39.9 °F 37.6 °F 30.6 in West 0.9 mph 2 mph 91% 0 in 0 W/m2
23:53 39.9 °F 37.6 °F 30.6 in West 2 mph 2 mph 91% 0 in 0 W/m2
23:58 40.1 °F 37.8 °F 30.6 in West 2 mph 3 mph 91% 0 in 0 W/m2
Juneau County Weather
Compliments of Weather Underground - 4 mb